• In Russia
  • List of Countries
  • For 7 days
  • Water Temperature
  • Satellite Maps
  • Weather Map
  • Weather Widgets
  • user-avatar
    Login

    Hourly Weather Podlopatki

    Today, 15 November, Thursday

    Time Temperature Precipitation Wind Pressure Humidity
    00:00 -12°C° 0 mm 1 mps 724 mmHg 57%
    01:00 -12°C° 0 mm 1 mps 724 mmHg 59%
    02:00 -12°C° 0 mm 1 mps 724 mmHg 60%
    03:00 -15°C° 0 mm 2 mps 724 mmHg 61%
    04:00 -15°C° 0 mm 2 mps 723 mmHg 63%
    05:00 -15°C° 0 mm 2 mps 723 mmHg 64%
    06:00 -15°C° 0 mm 2 mps 723 mmHg 66%
    07:00 -16°C° 0 mm 2 mps 723 mmHg 73%
    08:00 -14°C° 0 mm 2 mps 723 mmHg 67%
    09:00 -13°C° 0 mm 2 mps 722 mmHg 61%
    10:00 -10°C° 0 mm 2 mps 722 mmHg 55%
    11:00 -10°C° 0 mm 3 mps 721 mmHg 51%
    12:00 -9°C° 0 mm 3 mps 721 mmHg 48%
    13:00 -8°C° 0 mm 3 mps 721 mmHg 44%
    14:00 -9°C° 0 mm 3 mps 720 mmHg 49%
    15:00 -10°C° 0 mm 3 mps 720 mmHg 53%
    16:00 -12°C° 0 mm 3 mps 720 mmHg 57%
    17:00 -12°C° 0 mm 3 mps 719 mmHg 58%
    18:00 -12°C° 0 mm 3 mps 719 mmHg 59%
    19:00 -13°C° 0 mm 3 mps 719 mmHg 58%
    20:00 -13°C° 0 mm 3 mps 718 mmHg 58%
    21:00 -13°C° 0 mm 3 mps 718 mmHg 59%
    22:00 -12°C° 0 mm 2 mps 718 mmHg 59%
    23:00 -12°C° 0 mm 2 mps 717 mmHg 60%

    Tomorrow, 16 November, Friday

    Time Temperature Precipitation Wind Pressure Humidity
    00:00 -12°C° 0 mm 2 mps 717 mmHg 62%
    01:00 -12°C° 0 mm 2 mps 717 mmHg 63%
    02:00 -12°C° 0 mm 2 mps 717 mmHg 64%
    03:00 -10°C° 0 mm 1 mps 716 mmHg 64%
    04:00 -10°C° 0 mm 1 mps 716 mmHg 65%
    05:00 -10°C° 0 mm 1 mps 716 mmHg 66%
    06:00 -10°C° 0 mm 1 mps 717 mmHg 67%
    07:00 -10°C° 0 mm 1 mps 717 mmHg 68%
    08:00 -10°C° 0 mm 2 mps 717 mmHg 63%
    09:00 -9°C° 0 mm 2 mps 716 mmHg 58%
    10:00 -7°C° 0 mm 2 mps 716 mmHg 54%
    11:00 -6°C° 0 mm 2 mps 716 mmHg 52%
    12:00 -5°C° 0 mm 2 mps 716 mmHg 50%
    13:00 -5°C° 0 mm 2 mps 715 mmHg 48%
    14:00 -5°C° 0 mm 2 mps 715 mmHg 52%
    15:00 -6°C° 0 mm 2 mps 715 mmHg 57%
    16:00 -6°C° 0 mm 1 mps 714 mmHg 62%
    17:00 -7°C° 0 mm 1 mps 714 mmHg 64%
    18:00 -7°C° 0 mm 1 mps 714 mmHg 65%
    19:00 -7°C° 0 mm 1 mps 714 mmHg 67%
    20:00 -8°C° 0 mm 1 mps 714 mmHg 68%
    21:00 -8°C° 0 mm 1 mps 714 mmHg 69%
    22:00 -8°C° 0 mm 1 mps 714 mmHg 70%
    23:00 -8°C° 0.1 mm 1 mps 715 mmHg 72%

    Day after tomorrow, 17 November, Saturday

    Time Temperature Precipitation Wind Pressure Humidity
    00:00 -8°C° 0.1 mm 1 mps 715 mmHg 75%
    01:00 -8°C° 0.1 mm 1 mps 715 mmHg 77%
    02:00 -8°C° 0.2 mm 1 mps 715 mmHg 82%
    03:00 -8°C° 0.2 mm 1 mps 715 mmHg 86%
    04:00 -8°C° 0.2 mm 2 mps 716 mmHg 90%
    05:00 -9°C° 0.1 mm 2 mps 716 mmHg 88%
    06:00 -10°C° 0.1 mm 3 mps 717 mmHg 86%
    07:00 -10°C° 0.1 mm 3 mps 718 mmHg 84%
    08:00 -11°C° 0 mm 4 mps 718 mmHg 76%
    09:00 -12°C° 0 mm 4 mps 719 mmHg 69%
    10:00 -13°C° 0 mm 5 mps 719 mmHg 61%
    11:00 -13°C° 0 mm 5 mps 719 mmHg 59%
    12:00 -13°C° 0 mm 5 mps 719 mmHg 57%
    13:00 -13°C° 0 mm 5 mps 719 mmHg 54%
    14:00 -14°C° 0 mm 4 mps 719 mmHg 57%
    15:00 -14°C° 0 mm 4 mps 719 mmHg 61%
    16:00 -14°C° 0 mm 3 mps 719 mmHg 64%
    17:00 -14°C° 0 mm 2 mps 720 mmHg 67%
    18:00 -14°C° 0 mm 2 mps 720 mmHg 70%
    19:00 -13°C° 0 mm 1 mps 720 mmHg 73%
    20:00 -13°C° 0 mm 1 mps 720 mmHg 74%
    21:00 -13°C° 0 mm 1 mps 720 mmHg 76%
    22:00 -14°C° 0 mm 1 mps 720 mmHg 77%
    23:00 -14°C° 0 mm 1 mps 720 mmHg 78%

    18 November, Sunday

    Time Temperature Precipitation Wind Pressure Humidity
    00:00 -14°C° 0 mm 1 mps 720 mmHg 80%
    01:00 -14°C° 0 mm 1 mps 719 mmHg 81%
    02:00 -15°C° 0 mm 1 mps 719 mmHg 82%
    03:00 -15°C° 0 mm 1 mps 719 mmHg 83%
    04:00 -15°C° 0 mm 1 mps 719 mmHg 84%
    05:00 -15°C° 0 mm 1 mps 719 mmHg 85%
    06:00 -15°C° 0 mm 1 mps 718 mmHg 86%
    07:00 -15°C° 0 mm 1 mps 718 mmHg 86%
    08:00 -14°C° 0 mm 1 mps 718 mmHg 80%
    09:00 -13°C° 0 mm 1 mps 718 mmHg 74%
    10:00 -12°C° 0 mm 1 mps 718 mmHg 67%
    11:00 -11°C° 0 mm 1 mps 717 mmHg 64%
    12:00 -11°C° 0 mm 1 mps 717 mmHg 61%
    13:00 -10°C° 0 mm 1 mps 716 mmHg 57%
    14:00 -11°C° 0 mm 1 mps 716 mmHg 63%
    15:00 -12°C° 0 mm 1 mps 716 mmHg 68%
    16:00 -13°C° 0 mm 1 mps 716 mmHg 74%
    17:00 -13°C° 0 mm 1 mps 716 mmHg 76%
    18:00 -14°C° 0 mm 1 mps 716 mmHg 78%
    19:00 -14°C° 0 mm 0 mps 716 mmHg 81%
    20:00 -14°C° 0 mm 0 mps 717 mmHg 82%
    21:00 -15°C° 0 mm 0 mps 717 mmHg 82%
    22:00 -15°C° 0 mm 0 mps 717 mmHg 83%
    23:00 -15°C° 0 mm 0 mps 717 mmHg 83%

    19 November, Monday

    Time Temperature Precipitation Wind Pressure Humidity
    00:00 -15°C° 0 mm 0 mps 717 mmHg 84%
    01:00 -15°C° 0 mm 1 mps 717 mmHg 84%
    02:00 -15°C° 0 mm 1 mps 717 mmHg 84%
    03:00 -16°C° 0 mm 1 mps 717 mmHg 84%
    04:00 -16°C° 0 mm 1 mps 717 mmHg 84%
    05:00 -16°C° 0 mm 1 mps 717 mmHg 85%
    06:00 -16°C° 0 mm 1 mps 718 mmHg 85%
    07:00 -16°C° 0 mm 1 mps 718 mmHg 85%
    08:00 -15°C° 0 mm 1 mps 718 mmHg 79%
    09:00 -13°C° 0 mm 1 mps 718 mmHg 72%
    10:00 -12°C° 0 mm 1 mps 718 mmHg 66%
    11:00 -13°C° 0 mm 2 mps 718 mmHg 62%
    12:00 -12°C° 0 mm 2 mps 718 mmHg 59%
    13:00 -10°C° 0 mm 2 mps 718 mmHg 56%
    14:00 -12°C° 0 mm 2 mps 718 mmHg 61%
    15:00 -13°C° 0 mm 2 mps 718 mmHg 65%
    16:00 -12°C° 0 mm 1 mps 718 mmHg 70%
    17:00 -13°C° 0 mm 1 mps 719 mmHg 72%
    18:00 -13°C° 0 mm 1 mps 719 mmHg 74%
    19:00 -14°C° 0 mm 1 mps 719 mmHg 76%
    20:00 -14°C° 0 mm 1 mps 719 mmHg 77%
    21:00 -16°C° 0 mm 2 mps 719 mmHg 78%
    22:00 -16°C° 0 mm 2 mps 719 mmHg 79%
    23:00 -16°C° 0 mm 2 mps 719 mmHg 80%

    20 November, Tuesday

    Time Temperature Precipitation Wind Pressure Humidity
    00:00 -17°C° 0 mm 2 mps 719 mmHg 81%
    01:00 -17°C° 0 mm 2 mps 719 mmHg 82%
    02:00 -17°C° 0 mm 2 mps 719 mmHg 82%
    03:00 -17°C° 0 mm 2 mps 718 mmHg 83%
    04:00 -17°C° 0 mm 2 mps 718 mmHg 83%
    05:00 -17°C° 0 mm 2 mps 718 mmHg 83%
    06:00 -17°C° 0 mm 2 mps 718 mmHg 82%
    07:00 -17°C° 0 mm 2 mps 718 mmHg 82%
    08:00 -16°C° 0 mm 2 mps 717 mmHg 75%
    09:00 -14°C° 0 mm 2 mps 717 mmHg 68%
    10:00 -13°C° 0 mm 2 mps 717 mmHg 61%
    11:00 -13°C° 0 mm 3 mps 716 mmHg 59%
    12:00 -12°C° 0 mm 3 mps 715 mmHg 57%
    13:00 -10°C° 0 mm 3 mps 714 mmHg 55%
    14:00 -12°C° 0 mm 3 mps 714 mmHg 61%
    15:00 -12°C° 0 mm 2 mps 714 mmHg 66%
    16:00 -13°C° 0 mm 2 mps 714 mmHg 72%
    17:00 -11°C° 0 mm 1 mps 713 mmHg 74%
    18:00 -12°C° 0 mm 1 mps 713 mmHg 76%
    19:00 -12°C° 0 mm 1 mps 713 mmHg 78%
    20:00 -12°C° 0 mm 1 mps 713 mmHg 78%
    21:00 -12°C° 0 mm 1 mps 713 mmHg 78%
    22:00 -13°C° 0 mm 1 mps 712 mmHg 78%
    23:00 -13°C° 0 mm 1 mps 712 mmHg 79%
    Show more